Location: Mejahma
(29.7207°N, 6.5110°W)
Time: 23:59:20
(UTC+00:00)

Daily predictions for brighter satellites

Satellite Brightness Start Highest point End
(mag) Time Altitude Azimuth Time Altitude Azimuth Time Altitude Azimuth
Cosmos 1190 Rocket 4.2 18:07:22 10° NNW 18:12:33 78° WSW 18:17:43 10° S
Cosmos 2266 Rocket 4.2 18:09:33 10° N 18:15:30 47° E 18:21:33 10° SSE
Cosmos 1689 Rocket 2.0 18:13:17 10° NNE 18:16:06 54° E 18:18:55 10° S
YAOGAN 6 4.3 18:14:11 10° S 18:17:32 39° W 18:20:57 10° NNW
Cosmos 1953 3.7 18:15:17 10° SSW 18:19:03 43° W 18:22:49 10° N
Helios 1A Rocket 4.1 18:17:00 10° SE 18:20:17 23° ENE 18:23:34 10° NNE
BREEZE-M DEB (TANK) 4.3 18:18:28 10° S 18:21:05 24° ESE 18:26:23 10° ENE
Cosmos 1606 Rocket 4.0 18:21:06 10° SSE 18:25:05 37° E 18:29:06 10° NNE
PSLV R/B 3.9 18:23:31 10° NNE 18:27:42 71° E 18:31:49 10° S
Delta 2 Rocket 4.3 18:25:20 10° W 18:30:44 64° NNW 18:35:58 12° ENE
SKYMED 2 3.6 18:26:56 10° N 18:31:17 87° WNW 18:35:36 10° SSW
Cosmos 44 4.0 18:28:25 10° SSE 18:32:05 27° ESE 18:35:51 10° NE
SWIFT 4.2 18:30:31 10° SW 18:33:46 21° S 18:37:01 10° SE
Geosat 4.3 18:32:30 10° NNE 18:37:31 71° WNW 18:42:29 10° SSW
FALCON 9 DEB 4.3 18:36:17 10° S 18:38:51 22° SE 18:39:56 19° E
Cosmos 1833 4.2 18:35:25 10° NNW 18:41:10 71° ENE 18:46:51 10° SSE
FALCON 9 DEB 4.3 18:38:58 10° S 18:41:35 23° SE 18:42:30 20° E
Cosmos 2058 Rocket 3.9 18:38:53 10° SSE 18:42:38 28° E 18:46:26 10° NNE
SL-27 R/B 3.5 18:39:47 10° NNW 18:43:12 47° WSW 18:46:31 10° S
Cosmos 1331 Rocket 3.9 18:40:37 10° S 18:45:44 68° ESE 18:50:52 10° NNE
ASC 2 Rocket 4.5 18:41:24 10° SW 18:45:58 40° SSE 18:50:36 17° ESE
Cosmos 2228 2.8 18:42:21 10° S 18:46:34 79° E 18:50:48 10° N
Cosmos 1939 Rocket 2.8 18:44:04 10° SSE 18:48:08 81° ENE 18:52:09 10° N
Cosmos 1809 Rocket 4.4 18:43:06 10° N 18:49:15 75° E 18:55:19 10° S
Feng Yun 1-1 Rocket 4.5 18:44:29 10° S 18:50:16 81° WSW 18:56:11 10° NNW
Cosmos 292 Rocket 3.8 18:47:11 10° S 18:51:48 53° ESE 18:56:27 10° NNE
Cosmos 1602 Rocket 4.5 18:47:52 10° NNW 18:52:13 53° W 18:56:33 10° S
Aureole 1 Rocket 2.7 18:50:44 10° NNW 18:53:39 59° WSW 18:56:50 10° S
CZ-4 R/B 1.4 18:53:45 10° SSE 18:57:38 51° ENE 19:01:28 10° N
CZ-2D R/B 3.1 18:53:58 10° SSE 18:57:47 75° ENE 19:01:36 10° N
Hubble Space Telescope 0.8 18:53:47 10° W 18:57:53 74° S 18:59:52 29° ESE
Longmarch 3A Rocket 2.8 18:56:06 10° WSW 18:57:59 26° S 19:00:29 16° SE
Cosmos 1953 Rocket 4.0 18:55:18 10° NNE 18:59:23 37° E 19:03:28 10° SSE
FALCON 9 DEB 3.3 18:57:17 10° SSW 19:00:20 43° SE 19:00:42 41° ESE
Aureole 3 Rocket 2.7 18:57:42 10° SSE 19:00:36 40° E 19:02:01 26° NE
Cosmos 1703 4.1 18:58:23 10° NNW 19:02:13 52° W 19:06:02 10° S
IRS-1C Rocket 4.3 18:58:51 10° S 19:04:05 72° WSW 19:09:21 10° NNW
MOS 1 Rocket 3.3 18:59:41 10° NNE 19:04:15 57° E 19:09:04 10° S
GENESIS II 4.2 19:00:39 10° SSW 19:04:39 88° WNW 19:07:40 17° NNE
USA 229 DEB 3.9 18:59:26 10° NNW 19:06:59 88° ENE 19:14:46 10° SSE
USA 229 3.9 18:59:32 10° NNW 19:07:05 87° ENE 19:14:51 10° SSE
Cosmos 1110 Rocket 4.5 19:02:13 10° SSW 19:07:26 62° WNW 19:12:38 10° N
Meteor 1-11 4.2 19:04:43 10° N 19:10:26 85° E 19:16:12 10° S
Cosmos 1302 Rocket 4.0 19:05:51 10° S 19:10:57 57° ESE 19:16:03 10° NNE
BREEZE-M DEB (TANK) 1.8 19:07:38 10° SW 19:11:05 73° SSE 19:11:05 73° SSE
Cosmos 1553 Rocket 4.0 19:07:52 10° SSE 19:14:05 57° E 19:20:18 10° NNE
Cosmos 1741 Rocket 3.9 19:12:31 10° NNW 19:17:46 84° ENE 19:22:58 10° SSE
H-2A R/B 2.2 19:15:51 18° SE 19:19:38 50° ENE 19:24:50 10° N
X-37B 4.0 19:20:07 10° SW 19:20:11 10° SW 19:20:16 10° SW
NOSS 3-1 (A) 4.2 19:12:07 10° NNW 19:20:17 85° ENE 19:29:19 10° SSE
Okean-O 2.8 19:16:13 10° S 19:20:37 71° W 19:25:03 10° NNW
ARGOS 3.7 19:23:47 37° NE 19:23:47 37° NE 19:28:08 10° N
SeaSat 1 2.8 19:25:37 42° NE 19:25:37 42° NE 19:29:58 10° N
COSMOS 2487 2.9 19:25:45 10° NNW 19:28:30 53° NNW 19:28:30 53° NNW
CSL-04 Rocket 3.6 19:23:49 10° SSE 19:29:17 65° ENE 19:34:47 10° N
OAO 3 Rocket 3.7 19:25:17 10° WNW 19:29:48 44° N 19:30:32 41° NNE
Cosmos 1300 4.4 19:26:23 10° SSW 19:29:51 34° W 19:33:21 10° NNW
YAOGAN 1 2.8 19:27:10 10° S 19:31:26 69° WSW 19:35:46 10° NNW
Aureole 3 3.9 19:28:34 10° SSW 19:32:43 53° W 19:35:27 15° N
CZ-2C R/B 4.0 19:40:26 24° SSE 19:40:26 24° SSE 19:42:37 10° S
Cosmos 1400 Rocket 3.4 19:33:30 10° SSW 19:37:33 59° W 19:41:20 12° N
Cosmos 1656 3.5 19:33:20 10° S 19:38:46 72° ESE 19:39:48 57° NE
CZ-2C R/B 3.6 19:37:16 10° S 19:43:00 66° W 19:48:48 10° NNW
Atlas Centaur 2 3.3 19:36:10 10° SW 19:44:07 45° SSE 19:45:26 42° SE
SJ-11-01 4.2 19:45:28 67° S 19:46:03 81° WSW 19:50:43 10° NNW
Meteor 2-10 Rocket 3.7 19:42:02 10° S 19:46:35 58° SSE 19:46:35 58° SSE
SL-08 R/B 4.3 19:49:51 10° N 19:56:02 86° E 19:57:23 58° SSE
Cosmos 2297 Rocket 4.3 19:53:08 10° N 19:53:58 14° N 19:53:58 14° N
Milstar 3 2.8 20:02:49 10° W 20:09:26 80° S 20:09:51 77° SE
Gbstr 26 Del rocket 4.4 20:17:21 10° NW 20:24:13 80° WNW 20:24:13 80° WNW
Hubble Space Telescope 4.1 20:35:03 10° W 20:35:11 11° W 20:35:11 11° W
